EHI
10 8 6 3 2 3 8 14 19 21 18 13 9 6 4 2 0 0 1 1 0 0 0 0 0 1 1 1 1 2 2 1 0 0 0 0 0 0 0 0 0 0 0
13 12 9 5 4 5 9 15 22 25 22 17 12 9 6 3 1 0 1 2 1 0 0 0 0 1 2 2 1 1 2 2 1 0 0 0 0 0 0 0 0 0 0
13 14 13 10 7 8 9 13 23 27 25 20 15 12 9 5 2 1 1 2 2 1 1 1 0 0 1 2 2 1 2 2 1 1 1 1 0 0 0 0 0 0 0
10 12 14 12 10 8 7 10 19 26 25 21 16 13 11 7 4 2 1 2 2 2 2 2 1 1 2 2 3 3 3 3 3 3 3 2 2 1 1 0 0 0 0
10 11 13 13 10 6 5 10 18 25 26 22 18 16 13 8 5 3 3 2 2 2 3 3 3 3 3 3 3 3 4 4 5 4 4 4 5 4 3 1 1 2 1
12 14 15 15 12 8 8 14 23 28 28 24 20 19 17 12 7 5 4 3 2 1 2 3 3 3 4 3 3 4 4 4 4 4 4 5 6 6 5 3 3 3 3
12 14 17 18 16 15 15 20 28 32 30 27 23 21 19 16 12 7 4 2 1 0 1 2 3 3 3 4 4 5 4 4 5 4 4 5 6 6 5 4 3 3 3
8 12 16 18 18 19 21 25 32 35 33 30 27 24 20 17 14 10 6 2 1 1 1 2 3 3 4 5 6 7 7 7 7 6 5 5 5 4 4 3 3 3 2
4 8 13 16 18 20 23 26 32 36 35 33 30 26 21 17 16 14 9 4 3 3 3 4 4 4 4 6 8 8 9 9 8 8 7 6 5 4 3 3 3 2 1
3 6 12 17 20 23 24 26 30 34 35 34 32 27 21 18 17 16 13 8 6 5 6 7 7 7 6 7 8 8 9 10 10 9 9 8 7 5 4 3 2 1 1
4 7 13 20 23 24 26 27 29 32 35 38 36 31 25 19 16 15 15 12 10 10 11 12 13 12 11 10 9 9 9 10 12 12 11 10 9 6 5 4 3 3 4
8 9 13 20 26 27 27 29 29 29 33 37 37 34 30 24 19 16 15 14 14 14 15 17 17 17 15 13 12 11 11 12 13 14 14 12 10 7 6 6 6 6 7
14 12 14 20 27 30 30 30 29 26 28 31 32 32 32 30 26 21 18 16 15 15 16 18 19 19 19 18 16 15 15 14 15 16 16 14 11 9 7 6 6 7 7
21 19 20 24 28 32 33 32 29 24 25 28 30 33 34 34 31 27 22 18 18 18 18 18 19 21 22 21 19 18 18 18 18 18 17 14 12 9 7 6 6 6 6
27 28 29 30 31 33 35 34 30 27 29 31 32 34 35 34 33 30 25 23 22 22 21 19 19 21 22 20 18 17 17 17 18 18 17 15 12 9 6 5 5 6 6
30 32 32 33 34 37 39 38 36 35 38 38 36 35 35 33 32 29 28 27 27 26 24 20 18 19 20 17 13 12 13 15 17 19 19 16 12 9 6 3 2 3 4
30 30 29 30 33 37 41 41 42 44 45 43 40 38 35 32 29 28 29 28 27 26 24 21 19 19 19 15 9 8 11 14 18 21 20 16 11 9 8 5 3 3 3
27 27 26 26 29 35 40 43 44 45 46 44 43 41 37 33 31 30 29 27 24 23 22 20 20 21 20 13 6 6 12 17 19 20 19 17 13 10 9 8 7 6 5
25 25 25 25 27 32 39 43 43 42 43 43 43 41 36 33 33 31 28 24 22 21 20 19 20 21 18 11 3 5 14 20 20 19 18 16 14 10 7 9 10 8 7
26 26 28 29 30 33 37 40 41 40 40 40 40 37 33 31 30 28 24 22 22 21 18 17 17 18 16 9 2 5 14 20 20 19 18 14 10 6 4 6 8 8 7
25 28 32 35 36 36 36 37 38 39 39 37 35 33 30 28 27 26 24 22 22 20 17 16 16 16 13 7 2 3 9 14 16 17 16 11 6 2 1 2 5 6 5
24 28 34 39 41 39 38 39 39 39 39 37 34 30 27 25 25 25 24 23 22 19 17 16 15 13 10 7 3 2 3 6 10 11 11 8 3 0 0 1 2 2 1
25 28 33 37 40 40 40 41 40 38 37 36 32 27 26 26 25 24 24 23 22 19 16 15 13 11 9 6 3 1 0 2 5 6 5 3 1 0 0 0 0 0 1
27 29 31 34 36 38 38 38 39 38 36 33 28 26 26 26 26 25 23 23 21 18 14 13 11 10 8 7 5 3 2 2 4 4 2 1 0 0 0 0 0 0 1
29 30 32 33 34 34 34 34 36 37 35 31 27 25 24 25 26 24 21 19 17 14 11 10 9 9 8 7 6 5 4 4 4 5 3 2 1 1 2 1 0 0 1
33 33 33 33 33 33 32 33 34 34 34 32 28 24 23 25 25 22 18 13 10 8 7 7 8 8 7 6 4 4 4 4 3 4 5 4 3 2 3 2 1 0 0
Wind_Speed
9 9 8 8 7 7 6 6 5 4 3 2 2 1 1 1 1 2 3 2 2 2 2 1 2 1 2 2 1 0 2 1 0 1 1 2 2 2 2 1 1 3 3
10 10 9 9 9 8 7 7 7 6 5 3 1 1 0 0 2 2 2 1 1 1 1 1 1 2 1 1 1 0 1 0 0 1 1 1 3 2 2 2 2 1 2
11 11 10 9 9 9 9 7 7 6 5 4 3 2 2 1 1 1 1 1 1 1 2 1 2 1 1 1 0 1 1 1 0 0 2 1 1 2 2 2 2 1 1
11 11 10 10 10 9 8 8 7 7 6 5 4 3 2 1 1 0 1 1 1 1 1 1 1 1 1 1 1 1 1 1 1 1 0 1 1 1 1 2 2 2 1
11 11 10 10 9 9 8 8 7 7 7 6 5 4 3 2 1 1 1 0 1 0 1 1 1 1 1 1 2 1 2 2 2 1 0 1 1 2 1 1 1 1 1
11 11 9 9 8 8 8 8 8 7 7 7 6 5 3 2 1 1 1 1 1 1 1 1 1 1 1 1 1 1 1 2 2 2 1 1 1 1 1 1 1 1 1
11 11 10 10 9 9 9 8 9 8 8 8 7 6 6 5 3 2 1 1 0 1 2 1 1 1 1 1 1 0 1 1 1 1 1 1 1 1 1 1 1 1 1
11 11 11 10 9 9 9 9 8 8 8 8 7 7 6 4 3 3 1 1 1 1 2 1 1 1 1 1 1 1 1 1 1 1 1 1 1 1 1 1 1 1 1
11 11 11 10 10 9 9 9 9 8 9 9 8 7 6 4 3 3 3 1 1 1 1 1 1 1 1 1 1 1 1 1 1 1 1 0 1 1 1 1 2 2 1
10 10 10 10 10 9 9 9 9 9 9 9 8 6 6 5 5 3 2 1 1 1 1 1 1 1 0 1 1 0 1 1 1 1 2 1 1 0 1 1 2 2 2
9 9 9 10 10 10 9 9 9 9 9 8 8 7 6 6 5 4 3 3 2 2 2 2 1 1 0 0 0 1 0 0 1 1 0 1 1 1 1 1 1 1 1
8 8 9 9 9 9 9 9 9 9 8 8 7 7 6 6 5 5 4 3 3 3 3 2 2 1 1 0 0 1 1 1 0 1 1 1 1 1 1 1 1 1 1
7 8 8 8 8 8 8 8 9 8 8 8 8 7 6 6 5 5 4 4 3 3 3 2 2 1 1 0 1 1 1 1 1 1 1 1 1 1 1 1 1 1 2
7 7 7 8 7 7 7 7 8 8 8 8 8 7 6 6 6 5 4 4 3 3 3 3 2 2 1 1 1 1 1 1 1 1 1 1 0 0 1 1 1 1 1
7 7 7 7 7 7 7 7 7 7 7 8 7 7 6 5 5 5 4 4 3 3 3 3 2 2 2 1 1 2 1 1 1 1 1 0 2 4 2 1 1 0 1
6 6 6 7 7 7 7 7 7 7 7 7 7 7 6 6 5 5 4 4 4 3 3 3 3 2 1 2 1 1 1 1 1 1 1 2 2 3 3 4 4 4 1
6 6 6 6 6 7 7 8 7 7 8 7 7 7 7 6 6 5 5 4 4 3 3 3 3 2 1 2 1 2 2 1 1 0 0 0 2 2 2 4 4 3 4
5 5 5 5 5 6 7 7 8 8 8 7 7 7 6 6 6 5 4 4 3 3 3 3 3 2 1 2 2 3 3 1 1 0 0 0 1 1 0 1 2 2 3
4 4 5 5 5 6 6 7 8 8 8 7 7 7 6 6 6 5 4 4 3 3 3 3 3 2 2 2 1 3 3 2 2 1 1 1 1 3 1 2 2 2 3
4 4 5 5 5 5 6 7 8 8 7 7 6 6 6 5 5 5 4 3 3 3 3 3 3 2 2 3 2 4 3 3 3 2 2 2 1 2 0 2 2 2 2
5 5 5 5 4 5 6 6 6 6 6 5 6 5 5 5 5 4 3 3 3 3 3 3 2 2 2 3 2 3 3 2 2 2 2 3 5 3 1 1 1 2 1
5 5 5 4 4 5 6 6 5 5 5 5 5 5 5 4 4 4 4 4 4 4 4 3 3 2 2 2 3 2 3 3 2 1 1 4 6 4 2 1 2 2 2
5 5 5 5 4 4 4 5 5 5 5 5 5 5 4 4 4 4 5 5 5 4 3 3 3 2 2 2 4 4 3 3 2 1 3 4 6 5 4 3 2 3 2
4 4 5 5 4 4 4 4 4 5 5 5 5 4 4 4 4 3 4 4 4 4 3 3 3 3 3 3 3 3 4 5 4 3 4 6 5 3 2 3 3 3 1
4 4 4 4 4 4 4 4 4 5 5 5 4 4 4 3 3 3 2 3 2 2 3 3 3 3 4 2 2 2 2 2 2 3 3 3 4 3 3 3 3 2 2
4 4 4 4 4 4 4 4 4 4 4 4 4 3 3 3 3 3 2 3 1 2 1 1 2 2 1 4 4 4 2 2 3 4 4 3 3 3 3 3 3 2 2
Wind_Direction
180 178 183 183 183 184 185 191 196 180 188 184 194 172 146 130 96 85 69 52 31 43 17 23 72 16 54 32 41 92 131 124 113 199 162 158 159 134 143 165 182 155 146
181 182 186 188 190 188 191 194 195 189 192 178 191 189 104 136 90 61 66 37 34 19 66 34 16 41 45 52 40 15 319 133 158 294 236 176 151 150 123 145 157 146 152
186 184 188 193 194 193 194 196 195 192 195 185 183 169 166 201 127 117 98 49 45 46 9 24 9 15 334 46 295 230 249 271 200 279 292 275 124 114 133 136 124 130 132
191 188 189 193 197 197 193 195 193 193 191 191 195 191 195 171 94 41 76 77 70 59 65 7 13 353 1 31 269 105 272 272 273 167 242 322 353 250 151 168 147 145 150
192 191 191 191 195 193 191 188 187 189 189 193 195 204 206 191 162 153 95 14 105 67 17 16 357 350 2 20 346 6 308 292 303 301 182 167 200 231 227 184 164 145 130
191 188 188 185 188 187 185 183 179 184 185 188 190 198 203 208 200 213 160 196 142 117 64 43 22 360 24 33 358 321 295 318 328 310 303 264 261 255 238 216 210 165 113
187 185 184 183 184 185 185 183 177 181 183 184 188 191 198 201 204 226 196 249 183 122 80 41 32 7 17 10 8 4 351 350 326 291 299 316 309 303 279 227 224 183 157
186 184 184 182 182 184 185 182 179 183 184 186 187 193 197 202 198 204 241 202 280 50 77 95 75 33 4 19 35 353 356 5 331 325 336 318 339 307 271 260 237 222 183
182 182 180 179 179 182 182 184 181 184 187 187 185 189 193 205 201 183 202 207 196 154 137 144 118 65 35 13 345 25 1 13 341 26 136 245 111 251 263 232 236 251 235
175 176 177 177 178 179 179 182 182 182 183 183 184 179 184 191 197 196 176 181 170 150 150 141 134 105 51 26 336 345 45 15 16 2 15 330 311 279 234 238 254 256 251
168 169 172 174 175 176 174 179 179 178 178 179 179 179 178 180 185 188 187 187 185 177 180 178 167 170 186 346 333 309 353 340 0 338 11 299 312 302 277 242 230 238 239
163 163 167 169 173 176 177 177 178 178 177 175 176 177 174 176 179 183 185 183 185 190 182 185 182 196 200 259 266 292 323 318 320 317 310 298 265 260 283 275 248 221 196
160 160 163 167 171 175 179 178 178 178 175 173 175 175 176 175 178 180 179 182 182 185 186 184 192 205 218 229 254 267 296 313 330 323 301 296 273 260 269 253 238 217 185
155 158 161 164 166 169 173 176 178 175 172 172 173 173 176 176 176 175 175 174 176 181 185 189 199 208 218 228 236 224 231 255 268 260 263 273 260 274 261 228 229 219 192
160 161 162 161 166 166 169 172 172 169 169 170 170 169 169 169 168 167 169 170 177 181 180 188 197 208 213 236 242 224 218 234 250 230 211 126 59 41 8 346 23 199 219
167 162 162 166 171 170 170 167 168 166 165 167 165 161 160 160 165 165 165 167 171 176 185 193 198 211 220 69 33 282 235 244 250 238 181 148 134 111 91 59 45 26 350
177 170 167 166 170 174 172 169 166 164 164 165 163 161 163 166 169 171 165 168 169 174 189 197 202 206 164 108 169 238 235 232 278 279 237 223 103 136 136 126 130 94 55
180 176 175 170 167 165 163 162 160 163 164 164 163 162 166 167 166 167 169 173 173 177 185 197 203 207 166 138 201 224 211 210 200 216 207 157 109 75 80 149 131 127 113
176 173 176 170 160 158 156 161 163 164 167 169 168 169 169 168 169 171 176 176 174 181 189 195 199 207 169 137 193 237 196 185 191 193 173 192 174 68 9 164 142 124 113
169 165 163 157 155 156 159 164 166 167 172 173 171 170 171 174 175 176 180 176 179 189 196 185 195 201 190 145 194 250 219 197 195 177 168 111 95 98 248 188 155 145 127
158 153 154 151 150 154 162 168 168 169 171 169 165 166 171 176 177 176 181 186 190 190 195 187 195 204 203 159 181 252 250 223 215 198 189 135 123 122 154 252 145 112 131
153 153 149 145 146 155 162 165 168 165 163 164 164 167 173 180 175 178 185 192 196 191 190 191 201 195 190 179 176 204 252 291 239 229 193 122 133 137 145 144 84 120 198
151 151 146 144 146 154 162 162 155 160 162 163 167 172 175 180 183 187 188 194 201 209 200 198 204 205 190 164 168 187 206 240 239 182 86 114 144 157 160 162 171 191 199
148 147 146 146 152 159 165 160 154 164 168 165 165 170 174 178 181 196 202 204 204 209 211 213 214 205 194 196 178 179 183 182 193 188 145 149 160 183 149 154 182 205 201
147 145 148 154 156 158 162 160 156 162 167 166 166 174 177 174 182 191 209 220 210 227 225 225 221 219 212 187 161 194 201 198 169 168 173 176 170 174 178 184 179 188 186
147 151 156 153 152 158 161 158 157 165 167 170 172 180 179 172 182 176 159 47 58 82 50 323 265 216 172 158 165 163 160 149 163 191 187 186 189 191 189 190 185 185 188